Newark, NJ

10:38 PM EST on December 14, 2017 (GMT -0500)
Newark International

Weather History for KEWR - April, 2014

Change the Weather History Date:

Friday, April 4, 2014

  Actual Average Record
Temperature  
Mean Temperature 44 °F 49 °F  
Max Temperature 47 °F 58 °F 82 °F (1950)
Min Temperature 41 °F 40 °F 23 °F (1954)
Degree Days  
Heating Degree Days 21 16  
Month to date heating degree days 67 68  
Since 1 July heating degree days 4776 4412  
Cooling Degree Days 0 0  
Month to date cooling degree days 0 0  
Year to date cooling degree days 0 1  
Moisture  
Dew Point 39 °F    
Average Humidity 85    
Maximum Humidity 93    
Minimum Humidity 76    
Precipitation  
Precipitation 0.25 in 0.14 in 1.86 in (1987)
Month to date precipitation 0.37 0.59  
Year to date precipitation 11.74 11.19  
Snow  
Snow 0.00 in 0.00 in 4.10 in (1957)
Month to date snowfall 0.0 0.2  
Since 1 July snowfall 60.7 27.8  
Snow Depth 0.00 in    
Sea Level Pressure  
Sea Level Pressure 29.97 in    
Wind  
Wind Speed 9 mph (East)    
Max Wind Speed 17 mph    
Max Gust Speed 24 mph    
Visibility 6 miles    
Events Rain    
T = Trace of Precipitation, MM = Missing Value Source: NWS Daily Summary

Daily Weather History Graph

Daily Weather History Graph

Search for Another Location

Airport or City:

Trip Planner

Search our weather history database for the weather conditions in past years. The results will help you decide how hot, cold, wet, or windy it might be!

Date:

Astronomy

Apr. 04, 2014 Rise Set
Actual Time 6:35 AM EDT 7:24 PM EDT
Civil Twilight 6:07 AM EDT 7:52 PM EDT
Nautical Twilight 5:34 AM EDT 8:25 PM EDT
Astronomical Twilight 5:00 AM EDT 8:59 PM EDT
Moon 9:49 AM EDT (4/4) No Moon Set
Length of Visible Light 13h 44m
Length of Day
12h 49m
Waxing Crescent, 25% of the Moon is Illuminated
Apr 4
Waxing Crescent
Apr 7
First Quarter
Apr 15
Full
Apr 22
Last Quarter
Apr 29
New

Hourly Weather History & Observations

Time (EDT) Temp. Windchill Dew Point Humidity Pressure Visibility Wind Dir Wind Speed Gust Speed Precip Events Conditions
12:51 AM 46.9 °F - 41.0 °F 80% 30.09 in 10.0 mi Calm Calm - 0.00 in Rain Light Rain
1:51 AM 45.0 °F 42.6 °F 39.9 °F 82% 30.08 in 9.0 mi ESE 4.6 mph - 0.01 in Rain Light Rain
2:51 AM 44.1 °F 40.1 °F 39.9 °F 85% 30.07 in 8.0 mi East 6.9 mph - 0.02 in Rain Light Rain
3:51 AM 44.1 °F 39.5 °F 39.9 °F 85% 30.07 in 9.0 mi ESE 8.1 mph - 0.01 in Rain Light Rain
4:51 AM 43.0 °F 39.5 °F 39.0 °F 86% 30.06 in 9.0 mi East 5.8 mph - 0.00 in Rain Light Rain
5:51 AM 43.0 °F 40.3 °F 39.9 °F 89% 30.06 in 9.0 mi East 4.6 mph - 0.02 in Rain Light Rain
6:51 AM 44.1 °F 40.8 °F 39.0 °F 82% 30.06 in 10.0 mi East 5.8 mph - 0.00 in Rain Light Rain
7:51 AM 44.1 °F 40.1 °F 37.0 °F 76% 30.06 in 9.0 mi ENE 6.9 mph - 0.00 in Rain Light Rain
8:51 AM 44.1 °F 40.1 °F 35.1 °F 71% 30.06 in 10.0 mi ESE 6.9 mph - 0.00 in   Overcast
9:51 AM 43.0 °F 36.8 °F 36.0 °F 76% 30.05 in 10.0 mi ESE 11.5 mph - N/A   Overcast
10:42 AM 42.8 °F 37.0 °F 37.4 °F 81% 30.05 in 10.0 mi East 10.4 mph 17.3 mph N/A   Overcast
10:51 AM 44.1 °F 37.7 °F 37.0 °F 76% 30.04 in 10.0 mi East 12.7 mph 18.4 mph N/A   Overcast
11:46 AM 42.8 °F 36.2 °F 37.4 °F 81% 30.06 in 2.0 mi ESE 12.7 mph 18.4 mph 0.00 in   Light Drizzle
11:51 AM 42.1 °F 36.1 °F 37.0 °F 82% 30.06 in 2.0 mi East 10.4 mph 18.4 mph 0.00 in   Light Drizzle
12:05 PM 42.8 °F 38.0 °F 37.4 °F 81% 30.05 in 2.0 mi East 8.1 mph 17.3 mph 0.01 in Rain Light Rain
12:23 PM 42.8 °F 37.0 °F 37.4 °F 81% 30.04 in 2.0 mi East 10.4 mph 18.4 mph 0.01 in Rain Light Rain
12:51 PM 41.0 °F 34.3 °F 37.9 °F 89% 30.03 in 2.0 mi East 11.5 mph 20.7 mph 0.02 in   Light Drizzle
1:15 PM 41.0 °F 33.9 °F 39.2 °F 93% 30.03 in 3.0 mi East 12.7 mph 17.3 mph 0.00 in   Light Drizzle
1:51 PM 42.1 °F 35.2 °F 39.0 °F 89% 30.01 in 3.0 mi East 12.7 mph 17.3 mph 0.01 in Rain Light Rain
2:51 PM 43.0 °F 38.2 °F 39.0 °F 86% 29.99 in 10.0 mi East 8.1 mph 16.1 mph 0.00 in   Overcast
3:51 PM 42.1 °F 34.9 °F 37.9 °F 85% 29.94 in 7.0 mi East 13.8 mph 18.4 mph 0.00 in Rain Light Rain
4:51 PM 42.1 °F 36.1 °F 37.9 °F 85% 29.91 in 9.0 mi East 10.4 mph 19.6 mph 0.00 in Rain Light Rain
5:51 PM 41.0 °F 33.9 °F 37.9 °F 89% 29.88 in 4.0 mi East 12.7 mph 20.7 mph 0.00 in Rain Light Rain
6:51 PM 42.1 °F 36.6 °F 39.0 °F 89% 29.87 in 3.0 mi ENE 9.2 mph - 0.01 in Rain Light Rain
7:26 PM 42.8 °F 38.0 °F 39.2 °F 87% 29.86 in 2.5 mi ENE 8.1 mph - 0.01 in Rain Light Rain
7:51 PM 42.1 °F 37.1 °F 39.0 °F 89% 29.84 in 2.5 mi East 8.1 mph - 0.02 in Rain Light Rain
8:51 PM 43.0 °F 37.7 °F 41.0 °F 93% 29.84 in 2.5 mi ENE 9.2 mph - 0.01 in   Light Drizzle
9:51 PM 42.1 °F 36.1 °F 39.9 °F 92% 29.82 in 2.0 mi NE 10.4 mph - 0.01 in   Light Drizzle
10:51 PM 41.0 °F 34.3 °F 39.9 °F 96% 29.77 in 2.0 mi NNE 11.5 mph - 0.01 in   Light Drizzle
11:15 PM 41.0 °F 34.3 °F 39.2 °F 93% 29.77 in 1.5 mi NNE 11.5 mph - 0.00 in   Light Drizzle
11:44 PM 41.0 °F 34.7 °F 39.2 °F 93% 29.78 in 2.5 mi NNE 10.4 mph - 0.02 in Rain Rain
11:51 PM 41.0 °F 34.3 °F 39.9 °F 96% 29.78 in 2.5 mi NNE 11.5 mph - 0.08 in Rain Rain